{"data":{"norad_id":65449,"epoch":"2026-09-20T11:53:14.616384Z","epoch_age_seconds":115223,"freshness":"FRESH","line1":"1 65449U 25194R   26263.49530806  .00014946  00000+0  46406-3 0  9999","line2":"2 65449  97.2846 113.0929 0003114  85.8375 274.3223 15.33461557 59069","mean_motion":15.33461557,"eccentricity":0.0003114,"inclination_deg":97.2846,"raan_deg":113.0929,"arg_perigee_deg":85.8375,"mean_anomaly_deg":274.3223,"bstar":0.00046406,"rev_number":5906,"period_min":93.905190738342,"perigee_km":463.36280627192,"apogee_km":467.6250196045,"semimajor_km":6843.6309129382,"source":"CELESTRAK","updated_at":"2026-09-21T09:00:35.611449Z"}}